Location: Newark
(54.2500°N, 9.1833°E)
Time: 23:26:49
(UTC+00:00)

Vanguard 2 Rocket - Pass Details

Date: 18 December 2019
Orbit: 554 x 3326 km, 32.9° (Epoch: 21 January)

Event Time Altitude Azimuth Distance (km) Brightness Sun altitude
Rises 16:38:26 0° 243° (WSW) 7,183 13.5 -13.1°
Reaches altitude 10° 16:44:29 10° 234° (SW) 5,919 12.3 -13.9°
Maximum altitude 16:57:50 29° 185° (S) 3,668 10.2 -15.7°
Drops below altitude 10° 17:07:06 10° 131° (SE) 4,055 9.9 -17.0°
Enters shadow 17:09:28 - 123° (ESE) 4,492 10.1 -17.3°
